Regional Weather Roundup
Issued by NWS

Home | Current Version | Previous Version | Text Only | Print | Product List | Glossary On
Versions: 1 2 3 4 5 6 7 8 9 10 11 12 13 14 15 16 17 18 19 20 21 22 23 24 25 26 27 28 29 30 31 32 33 34 35 36 37 38 39 40 41 42 43 44 45 46 47 48 49 50
000
ASUS44 KEWX 030811
RWRTX
SOUTH TEXAS REGIONAL WEATHER ROUNDUP
NATIONAL WEATHER SERVICE AUSTIN/SAN ANTONIO TX
300 AM CDT FRI JUL 03 2015

NOTE: "FAIR" INDICATED FEW OR NO CLOUDS BELOW 12,000 FEET WITH NO
SIGNIFICANT WEATHER AND/OR OBSTRUCTIONS TO VISIBILITY.

* - THESE STATIONS ARE NOT NWS OR FAA STATIONS...AND ARE NOT SUBJECT
    TO NWS AND FAA QUALITY CONTROL.

TXZ171-172-183>190-030900-
TEXAS HILL COUNTRY AND EDWARDS PLATEAU

CITY           SKY/WX    TMP DP  RH WIND       PRES   REMARKS
JUNCTION       CLEAR     73  69  87 E5        30.02R
*LLANO         PTCLDY    73  70  88 CALM      30.04F
BURNET         MOCLDY    75  72  90 S7        30.04S
*HORSESHOE BAY PTCLDY    75  72  91 S7        30.01S
*KERRVILLE     CLOUDY    74  71  92 S9        30.05R
*FREDERICKSBRG MOCLDY    73  70  91 S5        30.03F
*ROCKSPRINGS   MOCLDY    72  70  94 SE15G23   30.04F
*BOERNE STAGE  CLOUDY    73  72  94 S6        30.04R
*CASTROVILLE   CLOUDY    76  74  95 SE7       30.01S
HONDO          CLOUDY    74  73  97 SE7       30.01F
*UVALDE        MOCLDY    73  72  98 E7        29.99R FOG
DEL RIO        CLEAR     77  69  76 E13       29.93R
LAUGHLIN AFB   CLEAR     76  72  86 SE15      29.94
CARRIZO SPRGS  CLEAR     72  72 100 E5        29.94R
$$

TXZ173-191>194-202-209-217>225-228-030900-
CENTRAL AND SOUTH CENTRAL TEXAS

CITY           SKY/WX    TMP DP  RH WIND       PRES   REMARKS
GEORGETOWN     MOCLDY    79  73  83 S7        29.99S
AUSTIN/BERGSTM MOCLDY    75  75 100 SE5       30.00S
AUSTIN/MABRY   CLOUDY    78  74  87 S6        30.02R
*AUSTIN/EXEC   LGT RAIN  75  75 100 CALM      30.01F
*LAGO VISTA    CLOUDY    76  73  93 S6        30.03S
SAN MARCOS     MOCLDY    75  72  88 S3        30.01S
NEW BRAUNFELS  CLOUDY    77  75  93 S8        29.99S
RANDOLPH AFB   CLOUDY    76  75  96 S6        30.00S
PT SAN ANTONIO CLOUDY    77  75  94 SE9       29.99S
SAN ANTONIO    CLOUDY    79  73  82 S9        30.00F
STINSON FIELD  CLOUDY    78  75  90 SE5       29.97S
*PLEASANTON    CLEAR     75  74  95 CALM      29.98S FOG
*LA GRANGE     PTCLDY    77  76  96 S3        29.99S FOG
*GIDDINGS      PTCLDY    75  73  94 CALM      30.05S FOG
*GONZALES      CLOUDY    77  77 100 SE3       29.99S
$$

TXZ163>164-176>182-195>201-210>213-226-227-235-030900-
SOUTHEAST TEXAS

CITY           SKY/WX    TMP DP  RH WIND       PRES   REMARKS
COLLEGE STN    PTCLDY    76  73  91 CALM      30.01R
*BRYAN         PTCLDY    76  75  97 S5        30.02R
*CALDWELL      PTCLDY    73  73 100 CALM      30.04S
*CROCKETT      PTCLDY    77  75  94 S5        30.03F
*BRENHAM       PTCLDY    76  76  98 CALM      30.01S FOG
HUNTSVILLE     PTCLDY    76  72  87 S3        30.01S
CONROE         CLEAR     73  71  93 CALM      30.01S FOG
HOUSTON BUSH   MOCLDY    76  75  97 S3        30.01R
HOUSTON HOBBY  MOCLDY    77  75  93 CALM      30.00S
*HOUSTON SW AP CLEAR     66  66 100 CALM      30.00S
PEARLAND       CLEAR     77  74  90 CALM      30.02R
HOUSTON HOOKS  CLEAR     76  74  93 CALM      30.01R
ELLINGTON FLD  MOCLDY    79  77  94 CALM      30.01S
SUGAR LAND     CLEAR     77  74  90 CALM      30.00S
*HOUSTON EXEC  CLEAR     75  75 100 S3        30.02R
*CLEVELAND MUN CLEAR     73  73  99 CALM      30.02S FOG
*WHARTON       CLEAR     74  73  97 CALM      30.01S FOG
*COLUMBUS      FAIR      75  75  99 CALM      30.00S FOG
$$

TXZ214>216-236>238-030900-
THE UPPER TEXAS COAST

CITY           SKY/WX    TMP DP  RH WIND       PRES   REMARKS
*ORANGE          N/A     75  75 100 CALM      30.02F FOG
PORT ARTHUR    PTCLDY    77  76  96 S3        30.00F
GALVESTON      MOCLDY    80  73  79 SE13      30.01S
ANGLETON       PTCLDY    77  76  96 CALM      30.00R
*BAY CITY      CLEAR     77  77  99 CALM      29.99S
PALACIOS       PTCLDY    82  77  84 S8        29.98S HX  90
$$

TXZ229>234-239>247-030900-
TEXAS COASTAL BEND AND RIO GRANDE PLAINS

CITY           SKY/WX    TMP DP  RH WIND       PRES   REMARKS
VICTORIA       LGT RAIN  77  77 100 E3        29.99S
*BEEVILLE      MOCLDY   N/A N/A N/A SE5       29.98R HAZE
ROCKPORT       LGT RAIN  82  77  84 VRB6      29.96S HX  90
*PORT ARANSAS  CLOUDY    79  78  96 S7        29.97R
*PORT LAVACA   PTCLDY    77  75  94 SE3       29.99R
*INGLESIDE     MOCLDY    82  78  86 S8        29.97R HX  91
CORPUS CHRISTI CLOUDY    79  77  94 SE6       29.96S
CORPUS NAS     CLOUDY   N/A N/A N/A S7        29.96S
*ROBSTOWN      CLEAR     79  32  18 SE3       29.96S HAZE
ALICE          CLEAR     76  74  93 SE6       29.95S FOG
KINGSVILLE NAS PTCLDY    77  77 100 SE5       29.96S
COTULLA        CLEAR     76  74  93 E7        29.95S
*FAITH RANCH     N/A     77  68  73 SE7       29.94R
LAREDO         CLEAR     78  67  68 SE9       29.94F
$$

TXZ248>255-030900-
DEEP SOUTH TEXAS

CITY           SKY/WX    TMP DP  RH WIND       PRES   REMARKS
BROWNSVILLE    CLEAR     76  73  91 SE5       29.94S
PORT ISABEL    CLEAR     76  73  91 SE3       29.94S
*SOUTH PADRE   CLEAR     75  75 100 CALM      29.94F
HARLINGEN      CLEAR     73  71  93 E3        29.93F
*HEBBRONVILLE    N/A     73  69  89 SE6       29.96S
MCALLEN        PTCLDY    76  70  82 SE7       29.93F
*WESLACO       CLEAR     74  69  85 SE3       29.93S
FALFURRIAS     CLEAR     75  71  88 E3        29.94F
EDINBURG       CLOUDY    76  71  83 S3        29.94S
*ZAPATA        CLEAR     76  66  71 SE8       29.91S
$$

TXZ213>215-236>238-242>244-246-247-251-254-255-030900-
CMAN STATIONS

STATION/POSITION TIME  TEMP    WIND        PRES    WAVE
                       AIR SEA DIR/SP/G            HT/PER
                 (UTC) (F)     (DEG/KT/KT) (MB)    (FT/S)
$$

GMZ080-GMZ150>470-030900-
OFFSHORE BUOY REPORTS

STATION/POSITION TIME  TEMP    WIND        PRES    WAVE
                       AIR SEA DIR/SP/G            HT/PER
                 (UTC) (F)     (DEG/KT/KT) (MB)    (FT/S)
$$


USA.gov is the U.S. government's official web portal to all federal, state and local government web resources and services.